• In Portugal
  • List of Countries
  • For 7 days
  • Water Temperature
  • Satellite Maps
  • Weather Map
  • Weather Widgets
  • user-avatar
    Login

    Hourly Weather Ulaangom

    Today, 19 February, Monday

    Time Temperature Precipitation Wind Pressure Humidity
    00:00 -22°C° 0 mm 1 mps 628 mmHg 73%
    01:00 -22°C° 0 mm 1 mps 628 mmHg 73%
    02:00 -22°C° 0 mm 1 mps 628 mmHg 72%
    03:00 -22°C° 0 mm 1 mps 628 mmHg 71%
    04:00 -22°C° 0 mm 1 mps 628 mmHg 71%
    05:00 -22°C° 0 mm 1 mps 628 mmHg 71%
    06:00 -23°C° 0 mm 1 mps 628 mmHg 69%
    07:00 -21°C° 0 mm 1 mps 629 mmHg 69%
    08:00 -20°C° 0 mm 1 mps 629 mmHg 69%
    09:00 -19°C° 0 mm 1 mps 630 mmHg 69%
    10:00 -18°C° 0 mm 1 mps 630 mmHg 69%
    11:00 -17°C° 0 mm 1 mps 630 mmHg 68%
    12:00 -16°C° 0 mm 1 mps 630 mmHg 67%
    13:00 -16°C° 0 mm 1 mps 630 mmHg 70%
    14:00 -16°C° 0 mm 1 mps 630 mmHg 72%
    15:00 -16°C° 0 mm 1 mps 630 mmHg 75%
    16:00 -17°C° 0 mm 1 mps 629 mmHg 75%
    17:00 -18°C° 0 mm 1 mps 629 mmHg 76%
    18:00 -20°C° 0 mm 1 mps 629 mmHg 77%
    19:00 -20°C° 0 mm 1 mps 629 mmHg 73%
    20:00 -20°C° 0 mm 1 mps 629 mmHg 70%
    21:00 -20°C° 0 mm 1 mps 629 mmHg 67%
    22:00 -20°C° 0 mm 1 mps 629 mmHg 65%
    23:00 -20°C° 0 mm 1 mps 630 mmHg 64%

    Tomorrow, 20 February, Tuesday

    Time Temperature Precipitation Wind Pressure Humidity
    00:00 -20°C° 0 mm 1 mps 630 mmHg 63%
    01:00 -20°C° 0 mm 1 mps 630 mmHg 63%
    02:00 -20°C° 0 mm 1 mps 630 mmHg 64%
    03:00 -20°C° 0 mm 1 mps 630 mmHg 64%
    04:00 -20°C° 0 mm 1 mps 630 mmHg 64%
    05:00 -20°C° 0 mm 1 mps 630 mmHg 65%
    06:00 -21°C° 0 mm 1 mps 630 mmHg 66%
    07:00 -19°C° 0 mm 1 mps 631 mmHg 66%
    08:00 -18°C° 0 mm 1 mps 631 mmHg 67%
    09:00 -17°C° 0 mm 1 mps 632 mmHg 67%
    10:00 -16°C° 0 mm 1 mps 632 mmHg 67%
    11:00 -15°C° 0 mm 1 mps 632 mmHg 66%
    12:00 -16°C° 0 mm 2 mps 632 mmHg 65%
    13:00 -16°C° 0 mm 2 mps 632 mmHg 68%
    14:00 -16°C° 0 mm 2 mps 631 mmHg 70%
    15:00 -16°C° 0 mm 2 mps 631 mmHg 73%
    16:00 -18°C° 0 mm 2 mps 630 mmHg 73%
    17:00 -20°C° 0 mm 2 mps 630 mmHg 73%
    18:00 -21°C° 0 mm 2 mps 629 mmHg 74%
    19:00 -21°C° 0 mm 2 mps 629 mmHg 72%
    20:00 -21°C° 0 mm 2 mps 629 mmHg 71%
    21:00 -21°C° 0 mm 2 mps 629 mmHg 70%
    22:00 -23°C° 0 mm 2 mps 628 mmHg 71%
    23:00 -23°C° 0 mm 2 mps 628 mmHg 71%

    Day after tomorrow, 21 February, Wednesday

    Time Temperature Precipitation Wind Pressure Humidity
    00:00 -23°C° 0 mm 2 mps 628 mmHg 72%
    01:00 -23°C° 0 mm 2 mps 627 mmHg 73%
    02:00 -23°C° 0 mm 2 mps 627 mmHg 73%
    03:00 -20°C° 0 mm 1 mps 627 mmHg 73%
    04:00 -20°C° 0 mm 1 mps 627 mmHg 73%
    05:00 -20°C° 0 mm 1 mps 626 mmHg 72%
    06:00 -20°C° 0 mm 1 mps 626 mmHg 71%
    07:00 -19°C° 0 mm 1 mps 627 mmHg 71%
    08:00 -18°C° 0 mm 1 mps 627 mmHg 70%
    09:00 -17°C° 0 mm 1 mps 628 mmHg 70%
    10:00 -18°C° 0 mm 2 mps 628 mmHg 68%
    11:00 -17°C° 0 mm 2 mps 627 mmHg 66%
    12:00 -15°C° 0 mm 2 mps 627 mmHg 65%
    13:00 -15°C° 0 mm 2 mps 627 mmHg 66%
    14:00 -15°C° 0 mm 2 mps 626 mmHg 68%
    15:00 -15°C° 0 mm 2 mps 626 mmHg 69%
    16:00 -16°C° 0 mm 2 mps 625 mmHg 69%
    17:00 -18°C° 0 mm 2 mps 625 mmHg 68%
    18:00 -17°C° 0 mm 1 mps 624 mmHg 67%
    19:00 -17°C° 0 mm 1 mps 624 mmHg 65%
    20:00 -17°C° 0 mm 1 mps 624 mmHg 64%
    21:00 -17°C° 0 mm 1 mps 624 mmHg 62%
    22:00 -17°C° 0 mm 1 mps 623 mmHg 62%
    23:00 -17°C° 0 mm 1 mps 623 mmHg 62%

    22 February, Thursday

    Time Temperature Precipitation Wind Pressure Humidity
    00:00 -19°C° 0 mm 2 mps 623 mmHg 62%
    01:00 -19°C° 0 mm 2 mps 622 mmHg 62%
    02:00 -18°C° 0 mm 2 mps 622 mmHg 62%
    03:00 -18°C° 0 mm 2 mps 621 mmHg 62%
    04:00 -18°C° 0 mm 2 mps 621 mmHg 62%
    05:00 -18°C° 0 mm 2 mps 621 mmHg 62%
    06:00 -18°C° 0 mm 2 mps 621 mmHg 62%
    07:00 -17°C° 0 mm 2 mps 621 mmHg 63%
    08:00 -16°C° 0 mm 2 mps 621 mmHg 64%
    09:00 -15°C° 0 mm 2 mps 621 mmHg 65%
    10:00 -13°C° 0 mm 2 mps 621 mmHg 64%
    11:00 -12°C° 0 mm 2 mps 621 mmHg 63%
    12:00 -10°C° 0 mm 2 mps 621 mmHg 63%
    13:00 -10°C° 0 mm 2 mps 621 mmHg 65%
    14:00 -10°C° 0 mm 2 mps 621 mmHg 67%
    15:00 -9°C° 0 mm 2 mps 621 mmHg 69%
    16:00 -10°C° 0 mm 2 mps 621 mmHg 69%
    17:00 -12°C° 0 mm 2 mps 621 mmHg 68%
    18:00 -11°C° 0 mm 1 mps 621 mmHg 68%
    19:00 -11°C° 0 mm 1 mps 621 mmHg 68%
    20:00 -11°C° 0 mm 1 mps 621 mmHg 68%
    21:00 -11°C° 0 mm 1 mps 621 mmHg 68%
    22:00 -12°C° 0 mm 1 mps 621 mmHg 69%
    23:00 -12°C° 0 mm 1 mps 621 mmHg 70%

    23 February, Friday

    Time Temperature Precipitation Wind Pressure Humidity
    00:00 -12°C° 0 mm 1 mps 621 mmHg 71%
    01:00 -12°C° 0 mm 1 mps 621 mmHg 71%
    02:00 -12°C° 0 mm 1 mps 621 mmHg 72%
    03:00 -13°C° 0 mm 1 mps 621 mmHg 73%
    04:00 -13°C° 0 mm 1 mps 621 mmHg 73%
    05:00 -13°C° 0 mm 1 mps 621 mmHg 73%
    06:00 -13°C° 0 mm 1 mps 621 mmHg 73%
    07:00 -12°C° 0 mm 1 mps 622 mmHg 74%
    08:00 -11°C° 0 mm 1 mps 622 mmHg 74%
    09:00 -11°C° 0 mm 1 mps 623 mmHg 74%
    10:00 -12°C° 0 mm 2 mps 623 mmHg 72%
    11:00 -10°C° 0 mm 2 mps 623 mmHg 69%
    12:00 -9°C° 0 mm 2 mps 623 mmHg 66%
    13:00 -9°C° 0 mm 2 mps 623 mmHg 68%
    14:00 -9°C° 0 mm 2 mps 623 mmHg 69%
    15:00 -8°C° 0 mm 2 mps 623 mmHg 70%
    16:00 -10°C° 0 mm 2 mps 623 mmHg 70%
    17:00 -13°C° 0 mm 2 mps 622 mmHg 70%
    18:00 -15°C° 0 mm 2 mps 622 mmHg 69%
    19:00 -15°C° 0 mm 2 mps 622 mmHg 68%
    20:00 -15°C° 0 mm 2 mps 622 mmHg 67%
    21:00 -16°C° 0 mm 2 mps 622 mmHg 66%
    22:00 -16°C° 0 mm 2 mps 621 mmHg 67%
    23:00 -16°C° 0 mm 2 mps 621 mmHg 69%

    24 February, Saturday

    Time Temperature Precipitation Wind Pressure Humidity
    00:00 -16°C° 0 mm 2 mps 621 mmHg 71%
    01:00 -16°C° 0 mm 2 mps 621 mmHg 71%
    02:00 -17°C° 0 mm 2 mps 621 mmHg 71%
    03:00 -17°C° 0 mm 2 mps 621 mmHg 71%
    04:00 -17°C° 0 mm 2 mps 621 mmHg 70%
    05:00 -17°C° 0 mm 2 mps 621 mmHg 69%
    06:00 -17°C° 0 mm 2 mps 621 mmHg 68%
    07:00 -16°C° 0 mm 2 mps 621 mmHg 69%
    08:00 -14°C° 0 mm 2 mps 621 mmHg 70%
    09:00 -13°C° 0 mm 2 mps 622 mmHg 72%
    10:00 -12°C° 0 mm 2 mps 622 mmHg 71%
    11:00 -12°C° 0 mm 3 mps 621 mmHg 71%
    12:00 -10°C° 0 mm 3 mps 621 mmHg 70%
    13:00 -10°C° 0 mm 3 mps 621 mmHg 72%
    14:00 -10°C° 0 mm 3 mps 620 mmHg 73%
    15:00 -10°C° 0 mm 3 mps 620 mmHg 74%
    16:00 -12°C° 0 mm 3 mps 620 mmHg 76%
    17:00 -13°C° 0 mm 3 mps 619 mmHg 77%
    18:00 -13°C° 0 mm 2 mps 619 mmHg 78%
    19:00 -13°C° 0 mm 2 mps 619 mmHg 77%
    20:00 -13°C° 0 mm 2 mps 619 mmHg 76%
    21:00 -13°C° 0 mm 2 mps 619 mmHg 76%
    22:00 -14°C° 0 mm 2 mps 619 mmHg 75%
    23:00 -15°C° 0 mm 3 mps 619 mmHg 75%
    Show more